Hourly Data Report for July 09, 2021

NORTH CAPE
PRINCE EDWARD ISLAND
Current Station Operator: ECCC - MSC

47°03'29.000" N
63°59'55.000" W
7.60 m
8300516
71987
WNE

Download Data

Hourly Data (July 2021)
Hourly Data Report for July 9, 2021
TIME
LST
Temp Definition
°C
Dew Point Definition
°C
Rel Hum Definition
%
Precip. Amount Definition
mm

Wind Dir Definition
10's deg

Wind Spd Definition
km/h
Visibility Definition
km
Stn Press Definition
kPa
Hmdx Definition


Wind Chill Definition


Weather Definition


00:00 14.8 12.1 84 0.0 14 29   102.20     LegendNANA
01:00 14.7 11.6 82 0.0 14 32   102.11     LegendNANA
02:00 14.8 11.7 82 0.0 13 26   102.03     LegendNANA
03:00 14.1 12.1 88 0.0 14 28   101.96     LegendNANA
04:00 14.6 12.3 86 0.7 13 36   101.73     LegendNANA
05:00 15.0 12.1 82 0.0 13 43   101.64     LegendNANA
06:00 14.0 13.0 94 5.6 14 38   101.54     LegendNANA
07:00 15.2 13.1 88 0.4 15 30   101.48     LegendNANA
08:00 15.9 14.8 93 0.0 16 24   101.43     LegendNANA
09:00 17.3 16.7 96 0.6 17 18   101.40     LegendNANA
10:00 18.8 18.0 95 1.8 18 20   101.36     LegendNANA
11:00 19.7 18.7 94 0.0 17 18   101.36     LegendNANA
12:00 20.6 19.4 93 0.0 19 22   101.39 28   LegendNANA
13:00 20.9 19.9 94 1.4 19 18   101.37 28   LegendNANA
14:00 21.2 19.8 91 0.2 20 19   101.34 29   LegendNANA
15:00 21.1 19.9 93 0.5 20 18   101.34 29   LegendNANA
16:00 21.1 19.9 93 0.6 21 19   101.33 29   LegendNANA
17:00 21.0 20.2 95 0.6 21 15   101.32 29   LegendNANA
18:00 20.9 20.2 96 0.3 19 12   101.26 29   LegendNANA
19:00 18.9 18.4 97 0.5 16 15   101.17     LegendNANA
20:00 19.6 19.3 98 0.0 16 11   101.16     LegendNANA
21:00 18.7 18.2 97 0.0 16 17   101.08     LegendNANA
22:00 17.4 16.9 97 0.0 13 16   100.94     LegendNANA
23:00 17.3 17.0 98 0.0 12 27   100.79     LegendNANA

Notes on Data Quality.

Legend

  • E = Estimated
  • M = Missing
  • NA = Not Available*
  • [empty] = Indicates an unobserved value
Date modified: